Content
SEND FEEDBACK

Daily
Averages
Monthly
Summary
United States of America

BAYSIDE, NEW YORK


Home > North America > United States > New York
Elevation: 11 feet     Latitude: 40 46N     Longitude: 073 54W

WEATHER
 
SELECT A DAY
Number of Records: 194,960;   Date Range: 1/1/95 - 11/27/14
 
SHARE

PRINT THIS DATA

[ ← Previous Day ]
WEATHER ALMANAC - JANUARY 10, 2013
[ Next Day → ]
[ °C ]   °F
Weather ElementAverageHighLow
Temperature44.3 °F48 °F (2:51 pm)39.9 °F (10:51 pm)
Dewpoint24.3 °F28 °F (1:51 am)21 °F (1:51 pm)
Humidity45.7 %55 % (10:51 pm)36 % (1:51 pm)
Barometer30.45 in30.55 in (11:51 pm)30.28 in (1:51 am)
Wind Speed11.7 mph19.6 mph (4:51 am)
Wind Gust28.8 mph (2:51 am)
Weather ElementAverage
Visibility10 mi
Wind DirectionWNW (284.8 °)

Weather ElementTotal
Precipitation---
Heating Degree Days21.1 (Base 65)
Averaged from 23 records on January 10, 2013
WEATHER CONDITIONS BREAKOUT
WIND DIRECTION BREAKOUT
WEATHER BY HOUR - JANUARY 10, 2013
[ °C ]   °F
Local TimeTemperatureDewpointHumidityBarometerVisibilityWind DirectionWind SpeedGust SpeedPrecipitationEventsConditions
1:51 AM46.0 °F28.0 °F50 %30.28 in10.0 miWest (280°)13.8 mphClear
2:51 AM46.0 °F25.0 °F44 %30.30 in10.0 miWNW (290°)16.1 mph28.8 mphClear
3:51 AM44.1 °F26.1 °F49 %30.33 in10.0 miNW (320°)10.4 mphClear
4:51 AM44.1 °F25.0 °F47 %30.35 in10.0 miNW (310°)19.6 mph25.3 mphPartly Cloudy
5:51 AM43.0 °F24.1 °F47 %30.39 in10.0 miNNW (330°)12.7 mphClear
6:51 AM42.8 °F24.8 °F49 %30.41 in10.0 miNW (310°)15.0 mphPartly Cloudy
7:51 AM42.1 °F25.0 °F51 %30.45 in10.0 miNW (310°)15.0 mphMostly Cloudy
8:51 AM43.0 °F25.0 °F49 %30.48 in10.0 miNW (320°)9.2 mph20.7 mphScattered Clouds
9:51 AM44.6 °F24.8 °F46 %30.49 in10.0 miNW (320°)13.8 mphMostly Cloudy
10:51 AM44.1 °F24.1 °F45 %30.48 in10.0 miNW (320°)16.1 mphMostly Cloudy
11:51 AM45.0 °F21.9 °F40 %30.45 in10.0 miNNW (340°)16.1 mph23.0 mphMostly Cloudy
12:51 PM46.0 °F21.9 °F39 %30.44 in10.0 miNW (320°)16.1 mphScattered Clouds
1:51 PM46.9 °F21.0 °F36 %30.46 in10.0 miNNW (340°)16.1 mphScattered Clouds
2:51 PM48.0 °F21.9 °F36 %30.47 in10.0 miWNW (300°)11.5 mphScattered Clouds
3:51 PM46.9 °F23.0 °F39 %30.48 in10.0 miNW (320°)11.5 mphScattered Clouds
4:51 PM46.0 °F23.0 °F40 %30.49 in10.0 miNNW (330°)10.4 mphScattered Clouds
5:51 PM45.0 °F25.0 °F46 %30.50 in10.0 miNW (320°)9.2 mphPartly Cloudy
6:51 PM45.0 °F25.0 °F46 %30.52 in10.0 miNW (310°)8.1 mphScattered Clouds
7:51 PM44.1 °F25.0 °F47 %30.53 in10.0 miNW (320°)8.1 mphMostly Cloudy
8:51 PM44.1 °F24.1 °F45 %30.53 in10.0 miNorth (360°)6.9 mphMostly Cloudy
9:51 PM42.1 °F24.1 °F49 %30.54 in10.0 miNE (50°)5.8 mphMostly Cloudy
10:51 PM39.9 °F25.0 °F55 %30.53 in10.0 miENE (70°)3.5 mphMostly Cloudy
11:51 PM39.9 °F25.0 °F55 %30.55 in10.0 miENE (60°)4.6 mphMostly Cloudy
Hourly data recorded from KLGA, located miles away from Bayside, New York







STORIES FROM OUR PARTNERS